Flag for India Weather past 2 weeks in Navi Mumbai, Maharashtra, India

Now
91 °F

Haze.


Feels Like: 105 °F
Forecast: 80 / 100 °F
Wind: 9 mph from Northwest

Location: Bombay / Santacruz

Current Time: May 4, 2015 at 3:36:33 PM

Latest Report: May 4, 2015 at 3:10 PM


Visibility: 3 mi

Pressure: 29.74 "Hg

Humidity: 63%

Dew point: 77 °F

Location of Navi MumbaiLocation

Historic Weather in Navi Mumbai — Graph

°F

Navi Mumbai temperature yesterday

Maximum temperature yesterday: 91 °F (at 11:40 AM)
Minimum temperature yesterday: 82 °F (at 4:10 AM)
Average temperature yesterday: 87 °F

Past Weeks' High & Low Weather Summary

 TemperatureHumidityPressure
High93 °F (Apr 19, 5:40 PM)94% (Apr 24, 7:10 AM)29.89 "Hg (Apr 24, 7:10 AM)
Low81 °F (Apr 26, 6:10 AM)47% (Apr 19, 5:40 PM)29.68 "Hg (Apr 19, 3:40 PM)
Average87 °F74%29.80 "Hg
* Reported Apr 19 1:40 PM — May 4 2:10 PM, Navi Mumbai, Weather by CustomWeather, © 2015

Note: Actual official high and low records may vary slightly from our data, if they occured in-between our weather recording intervals... More about our weather records

Advertising

Navi Mumbai weather history for previous 24 hours

 ConditionsComfort  
Time TempWeatherWind HumidityBarometerVisibility
2:10 PM
Mon, May 4
91 °FClear.15 mph63%29.77 "Hg2 mi
1:40 PM91 °FClear.15 mph63%29.80 "Hg2 mi
1:10 PM91 °FClear.10 mph63%29.80 "Hg2 mi
12:40 PM91 °FClear.9 mph63%29.80 "Hg2 mi
12:10 PM91 °FClear.7 mph63%29.83 "Hg2 mi
11:40 AM91 °FClear.10 mph63%29.83 "Hg2 mi
11:10 AM91 °FClear.9 mph63%29.83 "Hg2 mi
10:40 AM91 °FClear.9 mph63%29.83 "Hg2 mi
10:10 AM91 °FHaze.5 mph63%29.83 "Hg2 mi
9:40 AM90 °FHaze.3 mph67%29.83 "Hg2 mi
9:10 AM88 °FHaze.No wind70%29.83 "Hg2 mi
8:40 AM86 °FHaze.5 mph70%29.83 "Hg2 mi
7:40 AM86 °FHaze.No wind79%29.80 "Hg2 mi
7:10 AM84 °FHaze.No wind84%29.80 "Hg2 mi
6:40 AM84 °FHaze.3 mph84%29.80 "Hg2 mi
6:10 AM82 °FHaze.No wind89%29.77 "Hg2 mi
5:40 AM82 °FHaze.No wind84%29.77 "Hg2 mi
5:10 AM82 °FHaze.No wind84%29.77 "Hg2 mi
4:40 AM82 °FHaze.No wind84%29.77 "Hg2 mi
4:10 AM82 °FHaze.3 mph89%29.77 "Hg2 mi
3:40 AM82 °FHaze.No wind89%29.77 "Hg2 mi
3:10 AM84 °FHaze.No wind84%29.77 "Hg2 mi
2:40 AM84 °FPassing clouds.2 mph84%29.77 "Hg2 mi
2:10 AM84 °FPassing clouds.3 mph84%29.77 "Hg2 mi
1:40 AM86 °FPassing clouds.5 mph75%29.77 "Hg2 mi
1:10 AM86 °FPassing clouds.5 mph75%29.80 "Hg2 mi
12:40 AM86 °FPassing clouds.2 mph75%29.80 "Hg2 mi
12:10 AM86 °FPassing clouds.5 mph79%29.80 "Hg2 mi
11:40 PM
Sun, May 3
86 °FPassing clouds.6 mph79%29.80 "Hg2 mi
11:10 PM86 °FPassing clouds.5 mph79%29.83 "Hg2 mi
9:40 PM86 °FPassing clouds.6 mph79%29.80 "Hg2 mi
9:10 PM86 °FPassing clouds.6 mph79%29.80 "Hg2 mi
8:40 PM86 °FHaze.9 mph79%29.77 "Hg2 mi
8:10 PM86 °FHaze.7 mph79%29.77 "Hg2 mi
7:40 PM88 °FHaze.9 mph75%29.77 "Hg2 mi
7:10 PM86 °FHaze.12 mph79%29.74 "Hg3 mi
6:10 PM88 °FPassing clouds.10 mph75%29.74 "Hg4 mi
5:40 PM88 °FPassing clouds.14 mph75%29.74 "Hg4 mi
5:10 PM88 °FPassing clouds.13 mph70%29.74 "Hg5 mi
4:40 PM90 °FPassing clouds.13 mph67%29.74 "Hg5 mi
4:10 PM90 °FPassing clouds.12 mph67%29.74 "Hg4 mi
3:40 PM90 °FPassing clouds.13 mph67%29.74 "Hg4 mi
3:10 PM90 °FPassing clouds.14 mph67%29.77 "Hg4 mi
Weather by CustomWeather, © 2015

See weather overviewHow to use our weather pages